• In Uzbekistan
  • List of Countries
  • For 7 days
  • Water Temperature
  • Satellite Maps
  • Weather Map
  • Weather Widgets
  • user-avatar
    Login

    Hourly Weather Albertirsa

    Today, 21 September, Thursday

    Time Temperature Precipitation Wind Pressure Humidity
    00:00 +13°C° 0.6 mm 4 mps 747 mmHg 80%
    01:00 +13°C° 0 mm 4 mps 746 mmHg 83%
    02:00 +12°C° 0.3 mm 4 mps 746 mmHg 83%
    03:00 +12°C° 0.3 mm 5 mps 746 mmHg 83%
    04:00 +12°C° 0.3 mm 5 mps 746 mmHg 83%
    05:00 +12°C° 1 mm 5 mps 746 mmHg 83%
    06:00 +11°C° 1 mm 6 mps 746 mmHg 83%
    07:00 +12°C° 0 mm 5 mps 746 mmHg 85%
    08:00 +11°C° 1.6 mm 6 mps 746 mmHg 84%
    09:00 +11°C° 1.6 mm 7 mps 747 mmHg 83%
    10:00 +11°C° 1.6 mm 8 mps 747 mmHg 82%
    11:00 +10°C° 1.2 mm 8 mps 747 mmHg 82%
    12:00 +10°C° 1.2 mm 8 mps 747 mmHg 83%
    13:00 +10°C° 1.2 mm 8 mps 747 mmHg 83%
    14:00 +10°C° 0.7 mm 8 mps 748 mmHg 83%
    15:00 +10°C° 0.7 mm 7 mps 748 mmHg 83%
    16:00 +10°C° 0.7 mm 7 mps 748 mmHg 83%
    17:00 +10°C° 0.2 mm 7 mps 748 mmHg 82%
    18:00 +10°C° 0.2 mm 6 mps 748 mmHg 82%
    19:00 +10°C° 0.2 mm 6 mps 748 mmHg 82%
    20:00 +10°C° 0.1 mm 5 mps 748 mmHg 83%
    21:00 +12°C° 0.1 mm 5 mps 749 mmHg 83%
    22:00 +12°C° 0.1 mm 5 mps 749 mmHg 84%
    23:00 +11°C° 0.1 mm 4 mps 749 mmHg 84%

    Tomorrow, 22 September, Friday

    Time Temperature Precipitation Wind Pressure Humidity
    00:00 +11°C° 0.1 mm 4 mps 749 mmHg 85%
    01:00 +11°C° 0.1 mm 4 mps 749 mmHg 86%
    02:00 +11°C° 0 mm 4 mps 749 mmHg 87%
    03:00 +11°C° 0 mm 4 mps 749 mmHg 87%
    04:00 +11°C° 0 mm 3 mps 749 mmHg 88%
    05:00 +11°C° 0 mm 3 mps 750 mmHg 87%
    06:00 +11°C° 0 mm 3 mps 750 mmHg 86%
    07:00 +12°C° 0 mm 3 mps 750 mmHg 84%
    08:00 +13°C° 0 mm 3 mps 751 mmHg 79%
    09:00 +14°C° 0 mm 4 mps 751 mmHg 73%
    10:00 +17°C° 0 mm 4 mps 751 mmHg 67%
    11:00 +17°C° 0 mm 4 mps 751 mmHg 63%
    12:00 +18°C° 0 mm 4 mps 751 mmHg 59%
    13:00 +19°C° 0 mm 4 mps 751 mmHg 54%
    14:00 +19°C° 0.1 mm 4 mps 752 mmHg 54%
    15:00 +19°C° 0.1 mm 4 mps 752 mmHg 54%
    16:00 +19°C° 0.1 mm 4 mps 752 mmHg 54%
    17:00 +18°C° 0 mm 4 mps 752 mmHg 59%
    18:00 +16°C° 0 mm 3 mps 752 mmHg 63%
    19:00 +14°C° 0 mm 3 mps 752 mmHg 68%
    20:00 +14°C° 0 mm 3 mps 752 mmHg 70%
    21:00 +13°C° 0 mm 3 mps 753 mmHg 71%
    22:00 +13°C° 0 mm 3 mps 753 mmHg 73%
    23:00 +12°C° 0 mm 3 mps 753 mmHg 75%

    Day after tomorrow, 23 September, Saturday

    Time Temperature Precipitation Wind Pressure Humidity
    00:00 +13°C° 0 mm 2 mps 753 mmHg 76%
    01:00 +12°C° 0 mm 2 mps 753 mmHg 77%
    02:00 +12°C° 0 mm 2 mps 753 mmHg 78%
    03:00 +12°C° 0 mm 2 mps 753 mmHg 78%
    04:00 +10°C° 0 mm 3 mps 752 mmHg 78%
    05:00 +11°C° 0 mm 3 mps 752 mmHg 77%
    06:00 +11°C° 0 mm 3 mps 752 mmHg 75%
    07:00 +12°C° 0 mm 4 mps 752 mmHg 73%
    08:00 +13°C° 0.2 mm 4 mps 752 mmHg 72%
    09:00 +14°C° 0.2 mm 4 mps 752 mmHg 71%
    10:00 +14°C° 0.2 mm 5 mps 752 mmHg 70%
    11:00 +14°C° 0.4 mm 5 mps 752 mmHg 71%
    12:00 +14°C° 0.4 mm 5 mps 752 mmHg 73%
    13:00 +14°C° 0.4 mm 5 mps 751 mmHg 74%
    14:00 +14°C° 0.4 mm 5 mps 751 mmHg 76%
    15:00 +14°C° 0.4 mm 5 mps 751 mmHg 77%
    16:00 +14°C° 0.4 mm 4 mps 751 mmHg 79%
    17:00 +13°C° 0.3 mm 4 mps 751 mmHg 82%
    18:00 +13°C° 0.3 mm 3 mps 751 mmHg 84%
    19:00 +12°C° 0.3 mm 3 mps 751 mmHg 87%
    20:00 +13°C° 0.1 mm 2 mps 751 mmHg 88%
    21:00 +13°C° 0.1 mm 2 mps 751 mmHg 89%
    22:00 +13°C° 0.1 mm 2 mps 751 mmHg 90%
    23:00 +13°C° 0 mm 2 mps 751 mmHg 90%

    24 September, Sunday

    Time Temperature Precipitation Wind Pressure Humidity
    00:00 +13°C° 0 mm 1 mps 751 mmHg 91%
    01:00 +13°C° 0 mm 1 mps 751 mmHg 92%
    02:00 +12°C° 0 mm 1 mps 751 mmHg 92%
    03:00 +12°C° 0 mm 1 mps 751 mmHg 93%
    04:00 +12°C° 0 mm 1 mps 750 mmHg 94%
    05:00 +12°C° 0 mm 1 mps 751 mmHg 93%
    06:00 +12°C° 0 mm 1 mps 751 mmHg 92%
    07:00 +13°C° 0 mm 1 mps 751 mmHg 91%
    08:00 +13°C° 0 mm 1 mps 751 mmHg 86%
    09:00 +14°C° 0 mm 1 mps 751 mmHg 82%
    10:00 +15°C° 0 mm 1 mps 751 mmHg 78%
    11:00 +16°C° 0.1 mm 1 mps 751 mmHg 75%
    12:00 +16°C° 0.1 mm 1 mps 752 mmHg 72%
    13:00 +18°C° 0.1 mm 1 mps 752 mmHg 70%
    14:00 +18°C° 0.1 mm 1 mps 752 mmHg 71%
    15:00 +18°C° 0.1 mm 1 mps 752 mmHg 72%
    16:00 +16°C° 0.1 mm 1 mps 752 mmHg 73%
    17:00 +16°C° 0 mm 1 mps 752 mmHg 77%
    18:00 +15°C° 0 mm 1 mps 752 mmHg 82%
    19:00 +14°C° 0 mm 1 mps 752 mmHg 86%
    20:00 +14°C° 0 mm 1 mps 752 mmHg 88%
    21:00 +13°C° 0 mm 1 mps 752 mmHg 90%
    22:00 +13°C° 0 mm 1 mps 753 mmHg 91%
    23:00 +13°C° 0 mm 1 mps 753 mmHg 92%

    25 September, Monday

    Time Temperature Precipitation Wind Pressure Humidity
    00:00 +12°C° 0 mm 1 mps 753 mmHg 93%
    01:00 +12°C° 0 mm 1 mps 753 mmHg 93%
    02:00 +12°C° 0 mm 1 mps 753 mmHg 94%
    03:00 +12°C° 0 mm 1 mps 753 mmHg 94%
    04:00 +12°C° 0 mm 1 mps 753 mmHg 94%
    05:00 +12°C° 0 mm 1 mps 753 mmHg 93%
    06:00 +12°C° 0 mm 1 mps 753 mmHg 92%
    07:00 +13°C° 0 mm 1 mps 753 mmHg 91%
    08:00 +15°C° 0 mm 2 mps 753 mmHg 84%
    09:00 +16°C° 0 mm 2 mps 754 mmHg 76%
    10:00 +18°C° 0 mm 2 mps 754 mmHg 69%
    11:00 +19°C° 0 mm 2 mps 754 mmHg 64%
    12:00 +20°C° 0 mm 2 mps 753 mmHg 59%
    13:00 +21°C° 0 mm 2 mps 753 mmHg 53%
    14:00 +21°C° 0 mm 3 mps 753 mmHg 53%
    15:00 +21°C° 0 mm 3 mps 753 mmHg 53%
    16:00 +22°C° 0 mm 3 mps 753 mmHg 53%
    17:00 +20°C° 0 mm 3 mps 753 mmHg 58%
    18:00 +19°C° 0 mm 3 mps 753 mmHg 63%
    19:00 +17°C° 0 mm 3 mps 753 mmHg 68%
    20:00 +17°C° 0.2 mm 3 mps 753 mmHg 71%
    21:00 +16°C° 0.2 mm 3 mps 753 mmHg 73%
    22:00 +16°C° 0.2 mm 3 mps 753 mmHg 75%
    23:00 +14°C° 0.3 mm 3 mps 753 mmHg 77%

    26 September, Tuesday

    Time Temperature Precipitation Wind Pressure Humidity
    00:00 +14°C° 0.3 mm 3 mps 753 mmHg 78%
    01:00 +14°C° 0.3 mm 3 mps 753 mmHg 79%
    02:00 +13°C° 0 mm 3 mps 753 mmHg 79%
    03:00 +13°C° 0 mm 3 mps 753 mmHg 80%
    04:00 +13°C° 0 mm 3 mps 753 mmHg 80%
    05:00 +13°C° 0 mm 3 mps 753 mmHg 78%
    06:00 +14°C° 0 mm 3 mps 753 mmHg 76%
    07:00 +14°C° 0 mm 3 mps 754 mmHg 74%
    08:00 +17°C° 0 mm 3 mps 754 mmHg 67%
    09:00 +19°C° 0 mm 3 mps 754 mmHg 60%
    10:00 +21°C° 0 mm 3 mps 754 mmHg 52%
    11:00 +22°C° 0 mm 3 mps 754 mmHg 49%
    12:00 +24°C° 0 mm 3 mps 754 mmHg 45%
    13:00 +25°C° 0 mm 3 mps 753 mmHg 41%
    14:00 +25°C° 0 mm 3 mps 753 mmHg 42%
    15:00 +25°C° 0 mm 3 mps 753 mmHg 43%
    16:00 +25°C° 0 mm 3 mps 753 mmHg 44%
    17:00 +23°C° 0 mm 2 mps 753 mmHg 49%
    18:00 +21°C° 0 mm 2 mps 753 mmHg 53%
    19:00 +19°C° 0 mm 2 mps 754 mmHg 58%
    20:00 +18°C° 0 mm 2 mps 754 mmHg 60%
    21:00 +18°C° 0 mm 2 mps 754 mmHg 62%
    22:00 +17°C° 0 mm 3 mps 754 mmHg 64%
    23:00 +17°C° 0 mm 3 mps 754 mmHg 65%
    Show more